WMT4793 LFBD-LIPZ

Flight info

Callsign WMT4793
Flight time 1h 31m
Altitude 34000
Route OBLOC DCT SECHE DCT NARAK DCT DITEV DCT MEN DCT NINUN DCT LATAM DCT ROMAM/N0432F350 DCT ETIDO DCT NEDRU DCT RILIP DCT EMMEF DCT LAPRI/N0426F340 DCT MOGBO DCT TZO DCT OSKOR DCT ADOSA/N0349F190 L612 ALBET
Aircraft A320/M-SDE1E2E3FGIJ1J4RWXY/LB1

Departure

Time 2026-05-07 12:48
Airport Bordeaux–Mérignac Airport (LFBD)

Arrival

Time 2026-05-07 14:20
Airport Venice Marco Polo Airport (LIPZ)
Time Latitude Longitude Altitude Speed Heading
2026-05-07 12:24 44.83041 -0.70547 156 ft 0 kts 138°
2026-05-07 12:39 44.83048 -0.70556 156 ft 2 kts 138°
2026-05-07 12:39 44.83060 -0.70570 156 ft 2 kts 138°
2026-05-07 12:40 44.83071 -0.70584 156 ft 2 kts 138°
2026-05-07 12:40 44.83082 -0.70599 156 ft 2 kts 138°
2026-05-07 12:40 44.83093 -0.70613 156 ft 2 kts 138°
2026-05-07 12:40 44.83100 -0.70622 156 ft 0 kts 140°
2026-05-07 12:41 44.83105 -0.70624 156 ft 0 kts 206°
2026-05-07 12:41 44.83109 -0.70619 156 ft 1 kts 229°
2026-05-07 12:41 44.83111 -0.70616 156 ft 0 kts 226°
2026-05-07 12:43 44.83109 -0.70619 156 ft 0 kts 226°
2026-05-07 12:43 44.83102 -0.70630 156 ft 1 kts 226°
2026-05-07 12:43 44.83090 -0.70647 156 ft 2 kts 224°
2026-05-07 12:44 44.83069 -0.70676 156 ft 5 kts 224°
2026-05-07 12:44 44.83044 -0.70709 157 ft 4 kts 224°
2026-05-07 12:44 44.83007 -0.70759 158 ft 11 kts 217°
2026-05-07 12:44 44.82933 -0.70816 160 ft 10 kts 173°
2026-05-07 12:45 44.82894 -0.70718 157 ft 13 kts 105°
2026-05-07 12:45 44.82867 -0.70579 156 ft 14 kts 105°
2026-05-07 12:45 44.82838 -0.70438 157 ft 13 kts 108°
2026-05-07 12:45 44.82809 -0.70316 160 ft 11 kts 108°
2026-05-07 12:46 44.82789 -0.70220 164 ft 8 kts 104°
2026-05-07 12:46 44.82776 -0.70154 166 ft 6 kts 106°
2026-05-07 12:46 44.82759 -0.70069 168 ft 10 kts 105°
2026-05-07 12:46 44.82736 -0.69959 170 ft 11 kts 110°
2026-05-07 12:47 44.82681 -0.69937 171 ft 10 kts 207°
2026-05-07 12:47 44.82607 -0.69976 170 ft 11 kts 193°
2026-05-07 12:47 44.82546 -0.70030 169 ft 12 kts 275°
2026-05-07 12:47 44.82589 -0.70215 164 ft 43 kts 287°
2026-05-07 12:48 44.82751 -0.70994 166 ft 115 kts 287°
2026-05-07 12:48 44.83041 -0.72378 193 ft 167 kts 286°
2026-05-07 12:48 44.83296 -0.74003 821 ft 167 kts 265°
2026-05-07 12:48 44.82757 -0.75398 1438 ft 170 kts 214°
2026-05-07 12:49 44.81645 -0.75919 2096 ft 171 kts 180°
2026-05-07 12:49 44.80471 -0.75681 2745 ft 172 kts 167°
2026-05-07 12:49 44.79335 -0.75291 3362 ft 174 kts 166°
2026-05-07 12:49 44.78132 -0.74894 3881 ft 184 kts 168°
2026-05-07 12:50 44.76832 -0.74508 4311 ft 200 kts 169°
2026-05-07 12:50 44.75407 -0.74118 4758 ft 217 kts 170°
2026-05-07 12:50 44.73847 -0.73709 5207 ft 235 kts 170°
2026-05-07 12:50 44.72129 -0.73225 5570 ft 260 kts 163°
2026-05-07 12:51 44.70482 -0.71857 6067 ft 280 kts 132°
2026-05-07 12:51 44.69519 -0.69403 6727 ft 288 kts 100°
2026-05-07 12:51 44.69337 -0.66570 7596 ft 290 kts 89°
2026-05-07 12:51 44.69300 -0.63745 8371 ft 296 kts 88°
2026-05-07 12:52 44.69256 -0.60787 9149 ft 302 kts 89°
2026-05-07 12:52 44.69185 -0.57834 9909 ft 307 kts 90°
2026-05-07 12:52 44.69094 -0.54794 10579 ft 316 kts 91°
2026-05-07 12:52 44.68990 -0.51579 10990 ft 334 kts 91°
2026-05-07 12:53 44.68874 -0.48210 11485 ft 347 kts 91°
2026-05-07 12:53 44.68755 -0.44768 12240 ft 351 kts 91°
2026-05-07 12:53 44.68631 -0.41301 12975 ft 356 kts 91°
2026-05-07 12:53 44.68502 -0.37703 13693 ft 361 kts 91°
2026-05-07 12:54 44.68372 -0.34082 14392 ft 366 kts 92°
2026-05-07 12:54 44.68240 -0.30440 15064 ft 371 kts 92°
2026-05-07 12:54 44.68106 -0.26767 15722 ft 375 kts 92°
2026-05-07 12:54 44.67968 -0.23006 16374 ft 380 kts 92°
2026-05-07 12:55 44.67827 -0.19254 16976 ft 385 kts 94°
2026-05-07 12:55 44.67420 -0.15448 17573 ft 390 kts 105°
2026-05-07 12:55 44.66523 -0.11772 18181 ft 393 kts 116°
2026-05-07 12:55 44.65326 -0.08267 18785 ft 396 kts 119°
2026-05-07 12:56 44.64043 -0.04755 19365 ft 400 kts 120°
2026-05-07 12:56 44.62753 -0.01232 19934 ft 404 kts 119°
2026-05-07 12:56 44.61450 0.02364 20499 ft 408 kts 119°
2026-05-07 12:56 44.60136 0.06026 21054 ft 412 kts 119°
2026-05-07 12:57 44.58830 0.09685 21590 ft 416 kts 119°
2026-05-07 12:57 44.57506 0.13400 22116 ft 420 kts 119°
2026-05-07 12:57 44.56173 0.17143 22632 ft 424 kts 119°
2026-05-07 12:57 44.54836 0.20894 23139 ft 428 kts 119°
2026-05-07 12:58 44.53475 0.24707 23626 ft 431 kts 119°
2026-05-07 12:58 44.52124 0.28487 24094 ft 435 kts 119°
2026-05-07 12:58 44.50722 0.32406 24573 ft 438 kts 119°
2026-05-07 12:58 44.49337 0.36274 25027 ft 442 kts 120°
2026-05-07 12:59 44.47921 0.40220 25475 ft 445 kts 120°
2026-05-07 12:59 44.46477 0.44233 25914 ft 449 kts 120°
2026-05-07 12:59 44.45067 0.48264 26333 ft 453 kts 116°
2026-05-07 12:59 44.43914 0.52536 26744 ft 459 kts 109°
2026-05-07 13:00 44.43149 0.56944 27134 ft 464 kts 101°
2026-05-07 13:00 44.42608 0.61561 27536 ft 467 kts 99°
2026-05-07 13:00 44.42122 0.66232 27922 ft 470 kts 99°
2026-05-07 13:00 44.41637 0.70886 28274 ft 473 kts 100°
2026-05-07 13:01 44.41137 0.75555 28619 ft 476 kts 100°
2026-05-07 13:01 44.40616 0.80277 28966 ft 479 kts 100°
2026-05-07 13:01 44.40088 0.84986 29298 ft 482 kts 101°
2026-05-07 13:01 44.39546 0.89777 29630 ft 484 kts 101°
2026-05-07 13:02 44.39006 0.94511 29949 ft 487 kts 101°
2026-05-07 13:02 44.38457 0.99297 30262 ft 489 kts 101°
2026-05-07 13:02 44.37893 1.04177 30573 ft 492 kts 100°
2026-05-07 13:02 44.37339 1.08940 30919 ft 493 kts 100°
2026-05-07 13:03 44.36776 1.13784 31353 ft 492 kts 100°
2026-05-07 13:03 44.36224 1.18537 31780 ft 490 kts 99°
2026-05-07 13:03 44.35669 1.23291 32179 ft 489 kts 99°
2026-05-07 13:03 44.35114 1.28042 32546 ft 489 kts 99°
2026-05-07 13:04 44.34562 1.32762 32887 ft 488 kts 99°
2026-05-07 13:04 44.34002 1.37508 33209 ft 489 kts 99°
2026-05-07 13:04 44.33429 1.42349 33538 ft 488 kts 99°
2026-05-07 13:04 44.32863 1.47119 33860 ft 488 kts 99°
2026-05-07 13:05 44.32288 1.51947 34177 ft 488 kts 99°
2026-05-07 13:05 44.31712 1.56742 34456 ft 488 kts 99°
2026-05-07 13:05 44.31134 1.61547 34707 ft 489 kts 99°
2026-05-07 13:05 44.30624 1.66379 34920 ft 491 kts 97°
2026-05-07 13:06 44.30353 1.71273 35114 ft 492 kts 91°
2026-05-07 13:06 44.30362 1.76119 35312 ft 492 kts 86°
2026-05-07 13:06 44.30658 1.81025 35510 ft 492 kts 81°
2026-05-07 13:06 44.31234 1.85839 35700 ft 491 kts 75°
2026-05-07 13:07 44.32019 1.90642 35893 ft 491 kts 73°
2026-05-07 13:07 44.32840 1.95348 36011 ft 492 kts 73°
2026-05-07 13:07 44.34441 2.04606 36020 ft 492 kts 74°
2026-05-07 13:08 44.36008 2.13947 36024 ft 493 kts 74°
2026-05-07 13:08 44.37542 2.23232 36025 ft 493 kts 74°
2026-05-07 13:09 44.39071 2.32552 36025 ft 493 kts 74°
2026-05-07 13:09 44.40581 2.41808 36026 ft 493 kts 74°
2026-05-07 13:10 44.42085 2.51065 36026 ft 493 kts 74°
2026-05-07 13:10 44.43570 2.60264 36026 ft 493 kts 74°
2026-05-07 13:11 44.45067 2.69584 36024 ft 493 kts 75°
2026-05-07 13:11 44.46580 2.79001 36024 ft 492 kts 73°
2026-05-07 13:12 44.48598 2.88144 36025 ft 489 kts 65°
2026-05-07 13:12 44.51483 2.96709 36026 ft 481 kts 55°
2026-05-07 13:13 44.55080 3.04540 36028 ft 472 kts 49°
2026-05-07 13:13 44.58820 3.12113 36028 ft 468 kts 49°
2026-05-07 13:14 44.62334 3.19933 36026 ft 471 kts 53°
2026-05-07 13:14 44.65554 3.27974 36026 ft 471 kts 54°
2026-05-07 13:15 44.68779 3.36077 36025 ft 471 kts 54°
2026-05-07 13:15 44.71984 3.44108 36025 ft 470 kts 54°
2026-05-07 13:16 44.75205 3.52188 36025 ft 470 kts 54°
2026-05-07 13:16 44.78415 3.60274 36025 ft 471 kts 54°
2026-05-07 13:17 44.81575 3.68260 36023 ft 471 kts 54°
2026-05-07 13:17 44.84753 3.76312 36025 ft 471 kts 54°
2026-05-07 13:18 44.87928 3.84374 36026 ft 471 kts 54°
2026-05-07 13:18 44.91101 3.92455 36026 ft 471 kts 54°
2026-05-07 13:19 44.94250 4.00493 36026 ft 471 kts 54°
2026-05-07 13:19 44.97440 4.08663 36025 ft 472 kts 54°
2026-05-07 13:20 45.00492 4.16856 36024 ft 477 kts 59°
2026-05-07 13:20 45.02864 4.25753 36025 ft 486 kts 69°
2026-05-07 13:21 45.04294 4.35188 36024 ft 493 kts 78°
2026-05-07 13:21 45.05040 4.44878 36024 ft 495 kts 80°
2026-05-07 13:22 45.05736 4.54660 36017 ft 495 kts 80°
2026-05-07 13:22 45.06459 4.64411 36010 ft 496 kts 79°
2026-05-07 13:23 45.07194 4.74232 36005 ft 497 kts 81°
2026-05-07 13:23 45.07924 4.84083 36005 ft 496 kts 81°
2026-05-07 13:24 45.08633 4.93758 36005 ft 489 kts 81°
2026-05-07 13:24 45.09329 5.03361 36005 ft 481 kts 81°
2026-05-07 13:25 45.09973 5.12752 36001 ft 477 kts 83°
2026-05-07 13:25 45.10027 5.22261 36001 ft 478 kts 91°
2026-05-07 13:26 45.09587 5.31866 36001 ft 478 kts 92°
2026-05-07 13:26 45.09139 5.41436 36001 ft 479 kts 91°
2026-05-07 13:27 45.08764 5.51084 36002 ft 479 kts 90°
2026-05-07 13:27 45.08409 5.60671 36002 ft 479 kts 90°
2026-05-07 13:28 45.08040 5.70221 36000 ft 480 kts 91°
2026-05-07 13:28 45.07655 5.79819 36000 ft 480 kts 91°
2026-05-07 13:29 45.07095 5.89344 36001 ft 481 kts 94°
2026-05-07 13:29 45.06441 5.98929 36001 ft 482 kts 93°
2026-05-07 13:30 45.05789 6.08489 36001 ft 482 kts 93°
2026-05-07 13:30 45.05137 6.18020 36001 ft 483 kts 93°
2026-05-07 13:31 45.04470 6.27644 36001 ft 483 kts 93°
2026-05-07 13:31 45.03798 6.37173 36001 ft 484 kts 93°
2026-05-07 13:32 45.03117 6.46711 36001 ft 484 kts 92°
2026-05-07 13:32 45.02430 6.56256 36002 ft 485 kts 92°
2026-05-07 13:33 45.01728 6.65866 36001 ft 485 kts 93°
2026-05-07 13:33 45.01030 6.75472 36000 ft 486 kts 93°
2026-05-07 13:34 44.99974 6.89892 36000 ft 487 kts 92°
2026-05-07 13:35 44.99261 6.99500 36002 ft 487 kts 92°
2026-05-07 13:35 44.98537 7.09167 36002 ft 484 kts 93°
2026-05-07 13:36 44.98024 7.18694 36003 ft 477 kts 87°
2026-05-07 13:36 44.98064 7.28222 36002 ft 474 kts 85°
2026-05-07 13:37 44.98575 7.37622 36001 ft 469 kts 77°
2026-05-07 13:37 44.99996 7.46796 35898 ft 465 kts 68°
2026-05-07 13:37 45.01024 7.51143 35644 ft 460 kts 64°
2026-05-07 13:38 45.02200 7.55350 35394 ft 457 kts 62°
2026-05-07 13:38 45.03427 7.59581 35137 ft 455 kts 62°
2026-05-07 13:38 45.04637 7.63753 34884 ft 453 kts 62°
2026-05-07 13:38 45.05823 7.67862 34632 ft 453 kts 63°
2026-05-07 13:39 45.07027 7.72067 34378 ft 453 kts 63°
2026-05-07 13:39 45.08233 7.76299 34122 ft 454 kts 63°
2026-05-07 13:39 45.09420 7.80484 34006 ft 454 kts 63°
2026-05-07 13:40 45.11801 7.88905 34001 ft 455 kts 63°
2026-05-07 13:40 45.14198 7.97430 34001 ft 456 kts 63°
2026-05-07 13:41 45.16583 8.05937 34000 ft 456 kts 63°
2026-05-07 13:41 45.18947 8.14400 34000 ft 456 kts 63°
2026-05-07 13:42 45.21318 8.22920 34001 ft 455 kts 63°
2026-05-07 13:42 45.23665 8.31379 34001 ft 456 kts 63°
2026-05-07 13:43 45.26008 8.39854 34002 ft 455 kts 63°
2026-05-07 13:43 45.28353 8.48366 34005 ft 455 kts 63°
2026-05-07 13:44 45.30660 8.56766 34006 ft 456 kts 63°
2026-05-07 13:44 45.32980 8.65252 34006 ft 455 kts 64°
2026-05-07 13:45 45.35290 8.73727 34005 ft 456 kts 64°
2026-05-07 13:45 45.37626 8.82323 34006 ft 456 kts 64°
2026-05-07 13:46 45.39950 8.90914 34005 ft 456 kts 64°
2026-05-07 13:46 45.42287 8.99600 34003 ft 456 kts 63°
2026-05-07 13:47 45.44630 9.08326 33996 ft 456 kts 62°
2026-05-07 13:47 45.46943 9.16959 33986 ft 454 kts 62°
2026-05-07 13:48 45.49271 9.25654 33978 ft 455 kts 62°
2026-05-07 13:48 45.51583 9.34345 33975 ft 454 kts 62°
2026-05-07 13:49 45.53870 9.42979 33971 ft 454 kts 62°
2026-05-07 13:49 45.55978 9.51698 33971 ft 459 kts 68°
2026-05-07 13:50 45.57463 9.60851 33972 ft 462 kts 71°
2026-05-07 13:50 45.58809 9.70058 33970 ft 463 kts 72°
2026-05-07 13:50 45.59482 9.74643 33850 ft 465 kts 72°
2026-05-07 13:51 45.60162 9.79237 33065 ft 472 kts 72°
2026-05-07 13:51 45.60856 9.83911 32298 ft 475 kts 73°
2026-05-07 13:51 45.61544 9.88582 31596 ft 477 kts 73°
2026-05-07 13:51 45.62230 9.93259 30897 ft 478 kts 73°
2026-05-07 13:52 45.62913 9.97942 30227 ft 477 kts 73°
2026-05-07 13:52 45.63602 10.02676 29763 ft 472 kts 74°
2026-05-07 13:52 45.64247 10.07311 29308 ft 468 kts 76°
2026-05-07 13:52 45.64698 10.11949 28847 ft 465 kts 81°
2026-05-07 13:53 45.64908 10.16607 28392 ft 462 kts 85°
2026-05-07 13:53 45.64931 10.21273 27938 ft 458 kts 87°
2026-05-07 13:53 45.64908 10.25915 27483 ft 454 kts 88°
2026-05-07 13:53 45.64879 10.30541 27024 ft 450 kts 88°
2026-05-07 13:54 45.64854 10.35069 26575 ft 447 kts 88°
2026-05-07 13:54 45.64833 10.39568 26125 ft 443 kts 88°
2026-05-07 13:54 45.64813 10.44060 25677 ft 439 kts 88°
2026-05-07 13:54 45.64793 10.48549 25223 ft 436 kts 88°
2026-05-07 13:55 45.64773 10.52950 24776 ft 433 kts 88°
2026-05-07 13:55 45.64751 10.57422 24320 ft 429 kts 88°
2026-05-07 13:55 45.64728 10.61822 23870 ft 426 kts 88°
2026-05-07 13:55 45.64703 10.66131 23421 ft 423 kts 89°
2026-05-07 13:56 45.64679 10.70421 22975 ft 419 kts 89°
2026-05-07 13:56 45.64652 10.74731 22525 ft 416 kts 89°
2026-05-07 13:56 45.64623 10.78960 22079 ft 412 kts 89°
2026-05-07 13:56 45.64594 10.83156 21632 ft 409 kts 89°
2026-05-07 13:57 45.64563 10.87322 21177 ft 406 kts 90°
2026-05-07 13:57 45.64529 10.91486 20716 ft 404 kts 90°
2026-05-07 13:57 45.64495 10.95641 20254 ft 401 kts 90°
2026-05-07 13:57 45.64416 10.99712 19789 ft 399 kts 95°
2026-05-07 13:58 45.63790 11.03680 19319 ft 396 kts 111°
2026-05-07 13:58 45.62525 11.07227 18877 ft 391 kts 123°
2026-05-07 13:58 45.60992 11.10583 18429 ft 388 kts 125°
2026-05-07 13:58 45.59452 11.13855 17988 ft 385 kts 125°
2026-05-07 13:59 45.57932 11.17146 17547 ft 382 kts 124°
2026-05-07 13:59 45.56444 11.20420 17110 ft 378 kts 124°
2026-05-07 13:59 45.54991 11.23637 16678 ft 375 kts 124°
2026-05-07 13:59 45.53557 11.26819 16246 ft 373 kts 124°
2026-05-07 14:00 45.52134 11.29975 15814 ft 370 kts 124°
2026-05-07 14:00 45.50721 11.33107 15382 ft 367 kts 124°
2026-05-07 14:00 45.49338 11.36170 14956 ft 364 kts 123°
2026-05-07 14:00 45.47940 11.39260 14521 ft 361 kts 123°
2026-05-07 14:01 45.46568 11.42289 14091 ft 359 kts 123°
2026-05-07 14:01 45.45191 11.45326 13654 ft 356 kts 123°
2026-05-07 14:01 45.43837 11.48305 13223 ft 353 kts 124°
2026-05-07 14:01 45.42404 11.51168 12900 ft 345 kts 128°
2026-05-07 14:02 45.40865 11.53767 12850 ft 332 kts 132°
2026-05-07 14:02 45.39276 11.56293 12867 ft 333 kts 132°
2026-05-07 14:02 45.37703 11.58776 12685 ft 334 kts 132°
2026-05-07 14:02 45.36108 11.61289 12232 ft 333 kts 132°
2026-05-07 14:03 45.34775 11.64052 11770 ft 331 kts 112°
2026-05-07 14:03 45.34312 11.67319 11348 ft 328 kts 90°
2026-05-07 14:03 45.34434 11.70618 10950 ft 324 kts 85°
2026-05-07 14:03 45.34632 11.73888 10541 ft 321 kts 85°
2026-05-07 14:04 45.34818 11.77140 10171 ft 317 kts 86°
2026-05-07 14:04 45.34978 11.80263 10063 ft 303 kts 86°
2026-05-07 14:04 45.34899 11.83234 9899 ft 293 kts 105°
2026-05-07 14:04 45.33997 11.85838 9526 ft 289 kts 129°
2026-05-07 14:05 45.32666 11.87993 9187 ft 286 kts 134°
2026-05-07 14:05 45.31265 11.89936 9040 ft 275 kts 148°
2026-05-07 14:05 45.29514 11.90797 8919 ft 259 kts 180°
2026-05-07 14:05 45.27749 11.90250 8924 ft 260 kts 210°
2026-05-07 14:06 45.26314 11.88684 8959 ft 260 kts 223°
2026-05-07 14:06 45.24976 11.86924 8964 ft 261 kts 224°
2026-05-07 14:06 45.23623 11.85149 8966 ft 261 kts 223°
2026-05-07 14:06 45.22263 11.83398 8967 ft 261 kts 223°
2026-05-07 14:07 45.20920 11.81695 8967 ft 261 kts 222°
2026-05-07 14:07 45.19531 11.79946 8968 ft 261 kts 222°
2026-05-07 14:07 45.18152 11.78213 8968 ft 261 kts 222°
2026-05-07 14:07 45.16778 11.76491 8968 ft 261 kts 222°
2026-05-07 14:08 45.15395 11.74758 8968 ft 261 kts 222°
2026-05-07 14:08 45.14036 11.73056 8968 ft 261 kts 222°
2026-05-07 14:08 45.12641 11.71385 8960 ft 258 kts 214°
2026-05-07 14:08 45.10942 11.70659 8923 ft 245 kts 175°
2026-05-07 14:09 45.09342 11.71522 8949 ft 248 kts 140°
2026-05-07 14:09 45.08144 11.73313 8971 ft 250 kts 131°
2026-05-07 14:09 45.07024 11.75274 8966 ft 250 kts 124°
2026-05-07 14:09 45.06451 11.77642 8951 ft 251 kts 88°
2026-05-07 14:10 45.06936 11.80012 8874 ft 251 kts 54°
2026-05-07 14:10 45.08190 11.81799 8539 ft 249 kts 39°
2026-05-07 14:10 45.09562 11.83392 8220 ft 248 kts 38°
2026-05-07 14:10 45.10911 11.84986 7918 ft 246 kts 39°
2026-05-07 14:11 45.12222 11.86579 7626 ft 244 kts 40°
2026-05-07 14:11 45.13517 11.88188 7336 ft 243 kts 40°
2026-05-07 14:11 45.14813 11.89806 7040 ft 243 kts 41°
2026-05-07 14:11 45.16087 11.91409 6751 ft 243 kts 40°
2026-05-07 14:12 45.17358 11.93011 6471 ft 241 kts 40°
2026-05-07 14:12 45.18614 11.94590 6192 ft 240 kts 40°
2026-05-07 14:12 45.19879 11.96181 5908 ft 240 kts 40°
2026-05-07 14:12 45.21144 11.97775 5628 ft 239 kts 40°
2026-05-07 14:13 45.22402 11.99362 5350 ft 237 kts 40°
2026-05-07 14:13 45.23664 12.00952 5069 ft 236 kts 41°
2026-05-07 14:13 45.24921 12.02535 4787 ft 237 kts 40°
2026-05-07 14:13 45.26161 12.04107 4511 ft 235 kts 40°
2026-05-07 14:14 45.27398 12.05668 4237 ft 234 kts 40°
2026-05-07 14:14 45.28626 12.07223 3964 ft 234 kts 40°
2026-05-07 14:14 45.29833 12.08756 3694 ft 233 kts 41°
2026-05-07 14:14 45.31076 12.10291 3423 ft 233 kts 40°
2026-05-07 14:15 45.32308 12.11773 3157 ft 233 kts 41°
2026-05-07 14:15 45.33554 12.13310 3013 ft 231 kts 42°
2026-05-07 14:15 45.34772 12.14854 3009 ft 232 kts 42°
2026-05-07 14:15 45.35974 12.16404 3008 ft 232 kts 43°
2026-05-07 14:16 45.37183 12.17972 3005 ft 231 kts 43°
2026-05-07 14:16 45.38369 12.19512 2876 ft 224 kts 43°
2026-05-07 14:16 45.39563 12.21059 2577 ft 220 kts 43°
2026-05-07 14:16 45.40691 12.22517 2275 ft 211 kts 44°
2026-05-07 14:17 45.41772 12.23913 2084 ft 196 kts 44°
2026-05-07 14:17 45.42766 12.25195 1793 ft 187 kts 44°
2026-05-07 14:17 45.43696 12.26395 1545 ft 176 kts 44°
2026-05-07 14:17 45.44585 12.27541 1282 ft 166 kts 45°
2026-05-07 14:18 45.45417 12.28614 1047 ft 156 kts 45°
2026-05-07 14:18 45.46202 12.29626 843 ft 150 kts 45°
2026-05-07 14:18 45.46981 12.30632 665 ft 150 kts 45°
2026-05-07 14:18 45.47759 12.31636 466 ft 150 kts 45°
2026-05-07 14:19 45.48524 12.32627 267 ft 149 kts 45°
2026-05-07 14:19 45.49300 12.33621 76 ft 149 kts 45°
2026-05-07 14:19 45.50049 12.34591 9 ft 133 kts 43°
2026-05-07 14:19 45.50613 12.35315 11 ft 85 kts 45°
2026-05-07 14:20 45.50959 12.35761 13 ft 58 kts 42°
2026-05-07 14:20 45.51194 12.36061 9 ft 29 kts 36°
2026-05-07 14:20 45.51323 12.35931 10 ft 23 kts 279°
2026-05-07 14:20 45.51227 12.35760 12 ft 25 kts 221°
2026-05-07 14:21 45.51090 12.35586 13 ft 25 kts 228°
2026-05-07 14:21 45.50984 12.35395 12 ft 24 kts 254°
2026-05-07 14:21 45.50927 12.35167 9 ft 24 kts 223°
2026-05-07 14:21 45.50801 12.35007 9 ft 23 kts 222°
2026-05-07 14:22 45.50677 12.34848 6 ft 24 kts 221°
2026-05-07 14:22 45.50556 12.34692 7 ft 22 kts 226°
2026-05-07 14:22 45.50510 12.34550 8 ft 15 kts 300°
2026-05-07 14:22 45.50584 12.34430 8 ft 15 kts 311°
2026-05-07 14:23 45.50657 12.34312 9 ft 15 kts 312°
2026-05-07 14:23 45.50731 12.34193 9 ft 15 kts 300°
2026-05-07 14:23 45.50706 12.34086 9 ft 11 kts 223°
2026-05-07 14:23 45.50693 12.34069 9 ft 0 kts 223°